Voltar ao catálogo

NIMBUS 2 DEB

AtivoLEO
NORAD 25613·DEBRIS·🇺🇸 United States

Lançado May 15, 1966 de Vandenberg Space Force Base

Loading…

Próximas Passagens (próximas 24 horas)

TLE

AtualizadoSource: Space-Track

Época: Sep 13, 2026, 10:08 UTC

1 25613U 66040F   26256.42240689  .00001544  00000-0  19366-2 0  9990
2 25613 100.4604  57.7210 0028462 201.7514 187.4776 13.65922205951659

Acompanhe NIMBUS 2 DEB em tempo real com AllMySat

Download on the App Store